EN

Hourly Weather Alta Verapaz

Today, 17 January, Sunday

Time Temperature Precipitation Wind Pressure Humidity
00:00 +13°C° 0 mm 0 mps 659 mmHg 98%
01:00 +13°C° 0 mm 0 mps 658 mmHg 98%
02:00 +13°C° 0 mm 0 mps 658 mmHg 98%
03:00 +13°C° 0 mm 0 mps 657 mmHg 98%
04:00 +13°C° 0 mm 0 mps 657 mmHg 98%
05:00 +12°C° 0 mm 0 mps 657 mmHg 98%
06:00 +12°C° 0 mm 0 mps 657 mmHg 98%
07:00 +13°C° 0 mm 0 mps 658 mmHg 96%
08:00 +14°C° 0 mm 0 mps 659 mmHg 93%
09:00 +15°C° 0 mm 0 mps 659 mmHg 90%
10:00 +18°C° 0 mm 1 mps 659 mmHg 84%
11:00 +20°C° 0 mm 1 mps 659 mmHg 79%
12:00 +21°C° 0 mm 1 mps 659 mmHg 73%
13:00 +21°C° 0 mm 1 mps 659 mmHg 72%
14:00 +21°C° 0 mm 1 mps 658 mmHg 72%
15:00 +22°C° 0 mm 1 mps 657 mmHg 71%
16:00 +20°C° 0 mm 1 mps 657 mmHg 80%
17:00 +19°C° 0 mm 1 mps 657 mmHg 88%
18:00 +15°C° 0 mm 0 mps 657 mmHg 96%
19:00 +15°C° 0 mm 0 mps 658 mmHg 97%
20:00 +14°C° 0 mm 0 mps 658 mmHg 97%
21:00 +13°C° 0 mm 0 mps 658 mmHg 98%
22:00 +13°C° 0 mm 0 mps 658 mmHg 98%
23:00 +13°C° 0 mm 0 mps 658 mmHg 97%

Tomorrow, 18 January, Monday

Time Temperature Precipitation Wind Pressure Humidity
00:00 +13°C° 0 mm 0 mps 658 mmHg 97%
01:00 +14°C° 0 mm 0 mps 658 mmHg 95%
02:00 +14°C° 0 mm 0 mps 658 mmHg 93%
03:00 +14°C° 0 mm 0 mps 658 mmHg 91%
04:00 +14°C° 0 mm 0 mps 658 mmHg 92%
05:00 +14°C° 0 mm 0 mps 658 mmHg 93%
06:00 +14°C° 0 mm 0 mps 658 mmHg 94%
07:00 +15°C° 0 mm 0 mps 659 mmHg 91%
08:00 +16°C° 0 mm 0 mps 659 mmHg 88%
09:00 +17°C° 0 mm 0 mps 660 mmHg 86%
10:00 +19°C° 0.2 mm 1 mps 660 mmHg 87%
11:00 +19°C° 0.2 mm 1 mps 659 mmHg 89%
12:00 +19°C° 0.2 mm 1 mps 659 mmHg 91%
13:00 +19°C° 0.5 mm 1 mps 658 mmHg 93%
14:00 +18°C° 0.5 mm 1 mps 658 mmHg 95%
15:00 +18°C° 0.5 mm 1 mps 657 mmHg 97%
16:00 +16°C° 0.5 mm 0 mps 657 mmHg 98%
17:00 +15°C° 0.5 mm 0 mps 658 mmHg 98%
18:00 +15°C° 0.5 mm 0 mps 658 mmHg 99%
19:00 +15°C° 0.9 mm 0 mps 658 mmHg 99%
20:00 +15°C° 0.9 mm 0 mps 659 mmHg 99%
21:00 +15°C° 0.9 mm 0 mps 659 mmHg 99%
22:00 +15°C° 1.2 mm 0 mps 659 mmHg 99%
23:00 +15°C° 1.2 mm 0 mps 659 mmHg 99%

Day after tomorrow, 19 January, Tuesday

Time Temperature Precipitation Wind Pressure Humidity
00:00 +15°C° 1.2 mm 0 mps 659 mmHg 99%
01:00 +14°C° 0.7 mm 0 mps 659 mmHg 99%
02:00 +14°C° 0.7 mm 0 mps 658 mmHg 99%
03:00 +14°C° 0.7 mm 0 mps 658 mmHg 99%
04:00 +14°C° 0.3 mm 0 mps 658 mmHg 99%
05:00 +14°C° 0.3 mm 0 mps 658 mmHg 99%
06:00 +14°C° 0.3 mm 0 mps 659 mmHg 99%
07:00 +15°C° 0.2 mm 0 mps 659 mmHg 99%
08:00 +15°C° 0.2 mm 0 mps 659 mmHg 98%
09:00 +15°C° 0.2 mm 0 mps 660 mmHg 98%
10:00 +16°C° 0.2 mm 0 mps 660 mmHg 94%
11:00 +19°C° 0.2 mm 1 mps 660 mmHg 89%
12:00 +20°C° 0.2 mm 1 mps 660 mmHg 85%
13:00 +20°C° 0.2 mm 1 mps 659 mmHg 86%
14:00 +21°C° 0.2 mm 1 mps 659 mmHg 86%
15:00 +21°C° 0.2 mm 1 mps 658 mmHg 86%
16:00 +20°C° 0.3 mm 1 mps 658 mmHg 90%
17:00 +19°C° 0.3 mm 1 mps 658 mmHg 95%
18:00 +16°C° 0.3 mm 0 mps 658 mmHg 99%
19:00 +15°C° 0.2 mm 0 mps 659 mmHg 99%
20:00 +15°C° 0.2 mm 0 mps 659 mmHg 99%
21:00 +15°C° 0.2 mm 0 mps 660 mmHg 98%
22:00 +14°C° 0.2 mm 0 mps 659 mmHg 98%
23:00 +14°C° 0.2 mm 0 mps 659 mmHg 99%

20 January, Wednesday

Time Temperature Precipitation Wind Pressure Humidity
00:00 +14°C° 0.2 mm 0 mps 659 mmHg 99%
01:00 +14°C° 0.1 mm 0 mps 659 mmHg 99%
02:00 +14°C° 0.1 mm 0 mps 659 mmHg 99%
03:00 +14°C° 0.1 mm 0 mps 658 mmHg 98%
04:00 +14°C° 0.2 mm 0 mps 659 mmHg 98%
05:00 +14°C° 0.2 mm 0 mps 659 mmHg 98%
06:00 +14°C° 0.2 mm 0 mps 659 mmHg 98%
07:00 +14°C° 0.9 mm 0 mps 659 mmHg 98%
08:00 +15°C° 0.9 mm 0 mps 660 mmHg 98%
09:00 +15°C° 0.9 mm 0 mps 660 mmHg 98%
10:00 +15°C° 1.2 mm 0 mps 660 mmHg 99%
11:00 +15°C° 1.2 mm 0 mps 659 mmHg 99%
12:00 +15°C° 1.2 mm 0 mps 659 mmHg 99%
13:00 +16°C° 0.4 mm 0 mps 659 mmHg 97%
14:00 +16°C° 0.4 mm 0 mps 658 mmHg 96%
15:00 +17°C° 0.4 mm 0 mps 658 mmHg 94%
16:00 +16°C° 0.1 mm 0 mps 658 mmHg 95%
17:00 +16°C° 0.1 mm 0 mps 658 mmHg 96%
18:00 +15°C° 0.1 mm 0 mps 659 mmHg 97%
19:00 +15°C° 0 mm 0 mps 659 mmHg 97%
20:00 +15°C° 0 mm 1 mps 659 mmHg 97%
21:00 +15°C° 0 mm 1 mps 660 mmHg 97%
22:00 +14°C° 0.1 mm 0 mps 659 mmHg 97%
23:00 +14°C° 0.1 mm 0 mps 659 mmHg 96%

21 January, Thursday

Time Temperature Precipitation Wind Pressure Humidity
00:00 +14°C° 0.1 mm 0 mps 659 mmHg 96%
01:00 +14°C° 0.6 mm 0 mps 659 mmHg 97%
02:00 +14°C° 0.6 mm 0 mps 659 mmHg 97%
03:00 +14°C° 0.6 mm 0 mps 658 mmHg 98%
04:00 +14°C° 0.1 mm 0 mps 658 mmHg 98%
05:00 +14°C° 0.1 mm 0 mps 659 mmHg 98%
06:00 +14°C° 0.1 mm 0 mps 659 mmHg 98%
07:00 +14°C° 0.2 mm 0 mps 659 mmHg 98%
08:00 +15°C° 0.2 mm 0 mps 659 mmHg 98%
09:00 +15°C° 0.2 mm 0 mps 660 mmHg 98%
10:00 +16°C° 0.2 mm 0 mps 659 mmHg 96%
11:00 +16°C° 0.2 mm 0 mps 659 mmHg 95%
12:00 +19°C° 0.2 mm 1 mps 659 mmHg 93%
13:00 +20°C° 0.1 mm 1 mps 658 mmHg 87%
14:00 +21°C° 0.1 mm 1 mps 658 mmHg 81%
15:00 +22°C° 0.1 mm 1 mps 658 mmHg 75%
16:00 +21°C° 0.1 mm 1 mps 657 mmHg 82%
17:00 +17°C° 0.1 mm 0 mps 657 mmHg 90%
18:00 +16°C° 0.1 mm 0 mps 657 mmHg 97%
19:00 +15°C° 0 mm 0 mps 657 mmHg 98%
20:00 +15°C° 0 mm 0 mps 658 mmHg 98%
21:00 +14°C° 0 mm 0 mps 658 mmHg 98%
22:00 +14°C° 0 mm 0 mps 658 mmHg 98%
23:00 +14°C° 0 mm 0 mps 657 mmHg 98%

22 January, Friday

Time Temperature Precipitation Wind Pressure Humidity
00:00 +15°C° 0 mm 1 mps 657 mmHg 98%
01:00 +14°C° 0 mm 1 mps 657 mmHg 97%
02:00 +14°C° 0 mm 1 mps 656 mmHg 97%
03:00 +14°C° 0 mm 1 mps 656 mmHg 97%
04:00 +14°C° 0 mm 1 mps 656 mmHg 95%
05:00 +13°C° 0 mm 1 mps 656 mmHg 94%
06:00 +13°C° 0 mm 1 mps 656 mmHg 92%
07:00 +15°C° 0 mm 1 mps 657 mmHg 83%
08:00 +17°C° 0 mm 0 mps 658 mmHg 73%
09:00 +19°C° 0 mm 0 mps 659 mmHg 64%
10:00 +23°C° 0 mm 1 mps 659 mmHg 60%
11:00 +24°C° 0 mm 1 mps 659 mmHg 56%
12:00 +26°C° 0 mm 1 mps 659 mmHg 52%
13:00 +26°C° 0 mm 1 mps 658 mmHg 55%
14:00 +25°C° 0 mm 1 mps 658 mmHg 57%
15:00 +25°C° 0 mm 1 mps 657 mmHg 59%
16:00 +23°C° 0 mm 1 mps 657 mmHg 70%
17:00 +21°C° 0 mm 1 mps 656 mmHg 82%
18:00 +17°C° 0 mm 0 mps 656 mmHg 93%
19:00 +17°C° 0 mm 0 mps 656 mmHg 94%
20:00 +16°C° 0 mm 0 mps 657 mmHg 94%
21:00 +16°C° 0 mm 0 mps 657 mmHg 95%
22:00 +16°C° 0 mm 1 mps 657 mmHg 95%
23:00 +16°C° 0 mm 1 mps 657 mmHg 95%
Show more